EW2842 Weather Reports


time (UTC)temp
C
wind
direction
speed
KPH
gust
KPH
rain 1hr
cm
rain 24hr
cm
rain mn
cm
humidity
%
barometer
mb
20260508142219 12 27 4.8 16.1 0.00 0.13 0.05 74 1017.8
20260508141503 12 48 6.4 16.1 0.00 0.13 0.05 74 1017.7
20260508141003 12 45 4.8 16.1 0.00 0.13 0.05 77 1017.7
20260508140503 11 40 4.8 17.7 0.00 0.13 0.05 77 1017.8
20260508140219 11 34 4.8 17.7 0.00 0.13 0.05 77 1017.7
20260508135503 11 34 4.8 17.7 0.00 0.13 0.05 79 1017.7
20260508135003 11 13 4.8 14.5 0.00 0.13 0.05 81 1017.7
20260508134503 11 360 4.8 14.5 0.00 0.13 0.05 80 1017.7
20260508134003 11 20 4.8 14.5 0.00 0.13 0.05 80 1017.6
20260508133715 11 25 3.2 14.5 0.00 0.13 0.05 79 1017.6
20260508133003 11 11 3.2 14.5 0.00 0.13 0.05 80 1017.6
20260508132503 11 39 4.8 14.5 0.00 0.13 0.05 79 1017.6
20260508132218 11 39 4.8 14.5 0.00 0.13 0.05 79 1017.6
20260508131503 11 28 4.8 14.5 0.00 0.13 0.05 79 1017.6
20260508131003 11 31 4.8 14.5 0.00 0.13 0.05 79 1017.6
20260508130503 11 26 3.2 9.7 0.00 0.13 0.05 78 1017.5
20260508130003 11 8 3.2 9.7 0.00 0.13 0.05 78 1017.5
20260508125503 11 18 3.2 9.7 0.00 0.13 0.05 77 1017.4
20260508125003 11 28 3.2 9.7 0.00 0.13 0.05 77 1017.3
20260508124503 11 16 3.2 9.7 0.00 0.13 0.05 76 1017.4
20260508124218 11 2 3.2 9.7 0.00 0.13 0.05 76 1017.4
20260508123503 12 20 4.8 17.7 0.00 0.13 0.05 76 1017.3
20260508123003 12 45 3.2 17.7 0.00 0.13 0.05 75 1017.2
20260508122503 12 60 3.2 11.3 0.00 0.13 0.05 76 1017.2
20260508122003 12 53 3.2 11.3 0.00 0.13 0.05 74 1017.1
20260508121503 12 56 4.8 11.3 0.00 0.13 0.05 75 1017.0
20260508121003 12 45 3.2 12.9 0.00 0.13 0.05 74 1017.0
20260508120503 12 42 3.2 12.9 0.00 0.13 0.05 75 1017.1
20260508120003 12 45 3.2 14.5 0.00 0.13 0.05 75 1017.0
20260508115503 12 39 4.8 14.5 0.00 0.13 0.05 74 1017.0
20260508115003 12 43 4.8 12.9 0.00 0.13 0.05 75 1017.0
20260508114504 12 48 3.2 12.9 0.00 0.13 0.05 75 1017.0
20260508114003 12 61 3.2 14.5 0.00 0.13 0.05 73 1016.9
20260508113503 12 56 3.2 14.5 0.00 0.13 0.05 77 1016.9
20260508113004 12 60 3.2 9.7 0.00 0.13 0.05 77 1016.9
20260508112503 12 69 4.8 9.7 0.00 0.13 0.05 77 1016.9
20260508112003 12 66 4.8 11.3 0.00 0.13 0.05 77 1016.8
20260508111719 12 69 3.2 12.9 0.00 0.13 0.05 78 1016.8
20260508111003 12 85 3.2 12.9 0.00 0.13 0.05 81 1016.7
20260508110503 11 61 3.2 8.0 0.00 0.13 0.05 82 1016.7
20260508110218 11 52 3.2 8.0 0.00 0.13 0.05 82 1016.8
20260508105718 11 45 3.2 9.7 0.00 0.13 0.05 81 1016.7
20260508105003 11 44 3.2 9.7 0.00 0.13 0.05 82 1016.6
20260508104503 11 47 3.2 9.7 0.00 0.13 0.05 84 1016.7
20260508104003 11 63 3.2 8.0 0.00 0.13 0.05 84 1016.6
20260508103503 11 77 3.2 8.0 0.00 0.13 0.05 85 1016.6
20260508103219 11 71 1.6 6.4 0.00 0.13 0.05 85 1016.6
20260508102503 11 61 1.6 6.4 0.00 0.13 0.05 85 1016.5
20260508102003 10 46 1.6 6.4 0.00 0.13 0.05 85 1016.6
20260508101503 10 40 1.6 3.2 0.00 0.13 0.05 86 1016.6
20260508101003 10 53 1.6 3.2 0.00 0.13 0.05 86 1016.5
20260508100503 10 53 1.6 4.8 0.00 0.13 0.05 86 1016.5
20260508100217 10 55 0.0 4.8 0.00 0.13 0.05 86 1016.5
20260508095503 10 309 0.0 4.8 0.03 0.13 0.05 89 1016.4
20260508095219 10 288 0.0 4.8 0.03 0.13 0.05 90 1016.3
20260508094716 10 275 0.0 3.2 0.03 0.13 0.05 91 1016.3
20260508094003 10 269 0.0 3.2 0.05 0.13 0.05 91 1016.3
20260508093504 10 265 0.0 3.2 0.05 0.13 0.05 92 1016.2
20260508093003 10 261 0.0 3.2 0.05 0.13 0.05 92 1016.2
20260508092503 9 261 0.0 3.2 0.05 0.13 0.05 92 1016.2
20260508092003 9 280 1.6 4.8 0.05 0.13 0.05 92 1016.2
20260508091503 9 280 1.6 4.8 0.05 0.13 0.05 93 1016.2
20260508091003 9 271 1.6 4.8 0.05 0.13 0.05 93 1016.2
20260508090503 9 270 1.6 4.8 0.05 0.13 0.05 93 1016.2
20260508090217 9 266 1.6 6.4 0.05 0.13 0.05 93 1016.2
20260508085503 10 282 1.6 6.4 0.03 0.10 0.03 94 1016.2
20260508085003 9 301 1.6 4.8 0.03 0.10 0.03 93 1016.0
20260508084503 9 288 1.6 6.4 0.00 0.08 0.03 93 1016.0
20260508084003 9 287 3.2 6.4 0.00 0.08 0.00 93 1016.0
20260508083503 9 295 1.6 6.4 0.00 0.08 0.00 93 1015.9
20260508083003 9 292 1.6 9.7 0.00 0.08 0.00 94 1015.9
20260508082716 9 292 1.6 9.7 0.00 0.08 0.00 94 1015.8
20260508082003 9 288 1.6 3.2 0.00 0.08 0.00 94 1015.7
20260508081504 9 283 1.6 4.8 0.00 0.08 0.00 95 1015.6
20260508081003 9 264 1.6 4.8 0.00 0.08 0.00 94 1015.7
20260508080503 9 257 0.0 3.2 0.00 0.08 0.00 95 1015.7
20260508080003 9 257 0.0 4.8 0.00 0.08 0.00 96 1015.5
20260508075503 9 257 1.6 4.8 0.00 0.08 0.00 96 1015.5
20260508075003 9 274 1.6 4.8 0.00 0.08 0.00 96 1015.4
20260508074503 9 297 1.6 4.8 0.00 0.08 0.00 96 1015.4
20260508074003 8 293 1.6 4.8 0.00 0.08 0.00 96 1015.4
20260508073717 8 286 1.6 6.4 0.00 0.08 0.00 96 1015.3
20260508073003 8 284 1.6 9.7 0.00 0.08 0.00 96 1015.3
20260508072503 8 285 3.2 9.7 0.00 0.08 0.00 96 1015.2
20260508072003 8 290 3.2 6.4 0.00 0.08 0.00 96 1015.2
20260508071503 8 302 1.6 6.4 0.00 0.08 0.00 96 1015.1
20260508071218 8 300 3.2 6.4 0.00 0.08 0.00 96 1015.1
20260508070503 8 289 3.2 8.0 0.00 0.08 0.00 96 1014.9
20260508070003 8 282 1.6 8.0 0.00 0.08 0.00 96 1014.9
20260508065503 8 272 1.6 4.8 0.00 0.08 0.00 96 1014.8
20260508065218 8 278 1.6 4.8 0.00 0.08 0.00 96 1014.8
20260508064503 8 267 1.6 4.8 0.00 0.08 0.00 96 1014.8
20260508064216 8 270 1.6 4.8 0.00 0.08 0.00 96 1014.7
20260508063717 8 275 1.6 6.4 0.00 0.08 0.00 96 1014.7
20260508063218 8 267 1.6 6.4 0.00 0.08 0.00 96 1014.7
20260508062503 8 264 1.6 6.4 0.00 0.08 0.00 96 1014.6
20260508062003 8 264 3.2 6.4 0.00 0.08 0.00 96 1014.5
20260508061503 8 264 3.2 6.4 0.00 0.08 0.00 96 1014.5
20260508061003 8 266 1.6 4.8 0.00 0.08 0.00 96 1014.3
20260508060503 8 272 1.6 6.4 0.00 0.08 0.00 96 1014.3
20260508060003 8 276 1.6 6.4 0.00 0.08 0.00 96 1014.2
20260508055503 8 291 1.6 6.4 0.00 0.08 0.00 96 1014.2
20260508055218 8 283 1.6 6.4 0.00 0.08 0.00 96 1014.1
20260508054503 8 254 1.6 3.2 0.00 0.08 0.00 96 1014.1
20260508054003 8 254 1.6 3.2 0.00 0.08 0.00 96 1014.1
20260508053503 8 254 0.0 3.2 0.00 0.08 0.00 96 1014.0
20260508053003 8 254 1.6 4.8 0.00 0.08 0.00 96 1014.0
20260508052503 8 254 1.6 4.8 0.00 0.08 0.00 96 1014.0
20260508052003 8 254 1.6 4.8 0.00 0.08 0.00 96 1013.9
20260508051503 8 254 1.6 4.8 0.00 0.08 0.00 96 1013.9
20260508051003 8 254 1.6 4.8 0.00 0.08 0.00 96 1013.8
20260508050503 8 254 1.6 3.2 0.00 0.08 0.00 96 1013.7
20260508050003 8 254 1.6 4.8 0.00 0.08 0.00 96 1013.8
20260508045503 8 254 0.0 4.8 0.00 0.08 0.00 96 1013.8
20260508045003 8 254 0.0 3.2 0.00 0.08 0.00 96 1013.7
20260508044503 8 254 1.6 3.2 0.00 0.08 0.00 96 1013.8
20260508044003 8 254 1.6 4.8 0.00 0.08 0.00 96 1013.6
20260508043716 8 254 1.6 4.8 0.00 0.08 0.00 96 1013.7
20260508043217 8 254 1.6 3.2 0.00 0.08 0.00 96 1013.6
20260508042503 8 254 1.6 6.4 0.00 0.08 0.00 95 1013.6
20260508042219 8 254 1.6 6.4 0.00 0.08 0.00 95 1013.5
20260508041504 8 254 1.6 4.8 0.00 0.08 0.00 95 1013.4
20260508041003 8 254 1.6 4.8 0.00 0.08 0.00 95 1013.3
20260508040503 8 254 0.0 4.8 0.00 0.08 0.00 95 1013.3
20260508040003 8 254 0.0 3.2 0.00 0.08 0.00 95 1013.2
20260508035716 8 254 1.6 3.2 0.00 0.08 0.00 95 1013.3
20260508035217 8 254 0.0 3.2 0.00 0.08 0.00 95 1013.1
20260508034503 8 254 0.0 1.6 0.00 0.08 0.00 95 1013.1
20260508034003 8 254 0.0 1.6 0.00 0.08 0.00 95 1013.1
20260508033503 8 254 0.0 1.6 0.00 0.08 0.00 94 1013.2
20260508033003 9 254 0.0 1.6 0.00 0.08 0.00 94 1013.1
20260508032718 9 254 0.0 1.6 0.00 0.08 0.00 94 1013.1
20260508032219 9 254 0.0 3.2 0.00 0.08 0.00 94 1013.1
20260508031503 9 254 0.0 1.6 0.00 0.08 0.00 94 1013.1
20260508031003 9 254 0.0 3.2 0.00 0.08 0.00 94 1013.0
20260508030503 9 254 0.0 3.2 0.00 0.08 0.00 94 1013.1
20260508030003 9 254 0.0 3.2 0.00 0.08 0.00 94 1013.0
20260508025716 9 254 0.0 3.2 0.00 0.08 0.00 94 1013.1
20260508025003 9 254 0.0 1.6 0.00 0.08 0.00 94 1013.1
20260508024503 9 254 0.0 1.6 0.00 0.08 0.00 94 1013.1
20260508024003 9 254 0.0 3.2 0.00 0.08 0.00 94 1013.0
20260508023503 9 254 1.6 3.2 0.00 0.08 0.00 94 1013.1
20260508023003 9 254 1.6 4.8 0.00 0.08 0.00 94 1013.1
20260508022503 9 253 1.6 4.8 0.00 0.08 0.00 94 1013.1
20260508022003 9 252 1.6 4.8 0.00 0.08 0.00 94 1013.0
20260508021503 9 251 1.6 4.8 0.00 0.08 0.00 94 1013.0
20260508021216 9 252 1.6 4.8 0.00 0.08 0.00 94 1012.9
20260508020503 9 252 1.6 4.8 0.00 0.08 0.00 93 1012.8
20260508020003 9 251 1.6 4.8 0.00 0.08 0.00 93 1012.8
20260508015503 9 235 1.6 4.8 0.00 0.08 0.00 93 1012.7
20260508015003 9 222 1.6 4.8 0.00 0.08 0.00 93 1012.7
20260508014503 9 222 1.6 4.8 0.00 0.08 0.00 93 1012.6
20260508014003 9 222 1.6 4.8 0.00 0.08 0.00 93 1012.7
20260508013719 9 222 1.6 4.8 0.00 0.08 0.00 93 1012.7
20260508013003 9 222 1.6 3.2 0.00 0.08 0.00 93 1012.7
20260508012503 9 222 1.6 4.8 0.00 0.08 0.00 93 1012.7
20260508012003 9 222 1.6 4.8 0.00 0.08 0.00 93 1012.6
20260508011719 9 222 1.6 4.8 0.00 0.08 0.00 93 1012.6
20260508011003 9 215 1.6 6.4 0.00 0.08 0.00 93 1012.5
20260508010503 9 213 1.6 6.4 0.00 0.08 0.00 93 1012.6
20260508010003 10 225 1.6 4.8 0.00 0.08 0.00 93 1012.7
20260508005503 10 245 1.6 4.8 0.00 0.08 0.00 93 1012.5
20260508005216 10 255 1.6 4.8 0.00 0.08 0.00 93 1012.6
20260508004717 10 231 1.6 6.4 0.00 0.08 0.00 93 1012.5
20260508004003 10 217 3.2 6.4 0.00 0.08 0.00 93 1012.5
20260508003719 10 218 3.2 6.4 0.00 0.08 0.00 93 1012.5
20260508003003 10 231 1.6 4.8 0.00 0.08 0.00 93 1012.5
20260508002504 10 231 1.6 4.8 0.00 0.08 0.00 93 1012.5
20260508002004 10 225 1.6 4.8 0.00 0.08 0.00 93 1012.5
20260508001504 10 225 1.6 6.4 0.00 0.08 0.00 92 1012.5
20260508001216 10 225 1.6 6.4 0.00 0.08 0.00 92 1012.5
20260508000503 10 225 1.6 4.8 0.00 0.08 0.00 92 1012.4
20260508000003 10 225 3.2 4.8 0.00 0.08 0.00 92 1012.5
20260507235503 10 225 1.6 4.8 0.00 0.08 0.00 92 1012.4
20260507235003 10 225 1.6 4.8 0.00 0.08 0.00 92 1012.4
20260507234503 10 225 1.6 4.8 0.00 0.08 0.00 92 1012.2
20260507234003 10 224 1.6 4.8 0.00 0.08 0.00 92 1012.3
20260507233503 10 220 1.6 4.8 0.00 0.08 0.00 92 1012.3
20260507233003 10 215 0.0 3.2 0.00 0.08 0.00 92 1012.2
20260507232503 10 215 1.6 3.2 0.00 0.08 0.00 92 1012.2
20260507232003 10 215 0.0 3.2 0.00 0.08 0.00 92 1012.1
20260507231503 10 215 0.0 3.2 0.03 0.08 0.00 92 1012.2
20260507231003 10 215 0.0 3.2 0.03 0.08 0.00 92 1012.2
20260507230717 10 215 0.0 3.2 0.05 0.08 0.00 92 1012.2
20260507230217 10 215 0.0 3.2 0.08 0.08 0.00 91 1012.2
20260507225718 10 215 0.0 1.6 0.08 0.08 0.08 91 1012.2
20260507225219 10 215 0.0 1.6 0.08 0.08 0.08 91 1012.2
20260507224716 10 215 0.0 1.6 0.08 0.08 0.08 91 1012.2
20260507224003 10 215 0.0 1.6 0.08 0.08 0.08 90 1012.2
20260507223503 10 215 0.0 1.6 0.08 0.08 0.08 90 1012.2
20260507223003 10 215 0.0 1.6 0.08 0.08 0.08 90 1012.2
20260507222503 10 215 0.0 3.2 0.08 0.08 0.08 90 1012.3
20260507222217 10 215 0.0 3.2 0.08 0.08 0.08 89 1012.2
20260507221503 10 215 1.6 4.8 0.05 0.05 0.05 89 1012.2
20260507221003 10 215 1.6 4.8 0.05 0.05 0.05 89 1012.1
20260507220503 10 215 1.6 4.8 0.00 0.00 0.00 89 1012.1
20260507220003 10 215 0.0 3.2 0.00 0.00 0.00 89 1012.1
20260507215503 10 215 0.0 1.6 0.00 0.00 0.00 90 1012.1
20260507215003 10 215 0.0 3.2 0.00 0.00 0.00 90 1011.9
20260507214503 10 215 1.6 3.2 0.00 0.00 0.00 90 1012.0
20260507214003 10 207 1.6 4.8 0.00 0.00 0.00 90 1011.9
20260507213503 10 174 1.6 4.8 0.00 0.00 0.00 90 1011.9
20260507213003 10 184 1.6 8.0 0.00 0.00 0.00 90 1011.9
20260507212503 10 214 3.2 9.7 0.00 0.00 0.00 90 1011.9
20260507212003 10 214 3.2 9.7 0.00 0.00 0.00 90 1011.8
20260507211503 10 213 4.8 12.9 0.00 0.00 0.00 90 1011.9
20260507211003 10 198 4.8 12.9 0.00 0.00 0.00 90 1011.8
20260507210503 10 187 3.2 9.7 0.00 0.00 0.00 90 1011.5
20260507210003 10 201 3.2 11.3 0.00 0.00 0.00 90 1011.4
20260507205503 10 193 3.2 11.3 0.00 0.00 0.00 90 1011.5
20260507205003 10 169 4.8 11.3 0.00 0.00 0.00 90 1011.4
20260507204503 11 166 4.8 11.3 0.00 0.00 0.00 90 1011.2
20260507204003 11 172 4.8 14.5 0.00 0.00 0.00 90 1011.2
20260507203717 11 172 4.8 14.5 0.00 0.00 0.00 90 1011.2
20260507203003 11 173 4.8 16.1 0.00 0.00 0.00 90 1011.2
20260507202503 11 180 4.8 16.1 0.00 0.00 0.00 90 1011.2
20260507202003 11 176 6.4 14.5 0.00 0.00 0.00 90 1011.1
20260507201503 11 170 6.4 14.5 0.00 0.00 0.00 90 1011.1
20260507201218 11 170 6.4 14.5 0.00 0.00 0.00 90 1011.1
20260507200719 11 169 8.0 19.3 0.00 0.00 0.00 90 1010.9
20260507200003 11 169 8.0 19.3 0.00 0.00 0.00 89 1010.9
20260507195503 11 171 8.0 17.7 0.00 0.00 0.00 89 1010.9
20260507195003 11 173 8.0 19.3 0.00 0.00 0.00 88 1011.0
20260507194503 11 172 9.7 19.3 0.00 0.00 0.00 88 1011.0
20260507194003 11 170 8.0 19.3 0.00 0.00 0.00 88 1011.0
20260507193717 11 167 6.4 17.7 0.00 0.00 0.00 88 1010.9
20260507193003 11 164 6.4 16.1 0.00 0.00 0.00 88 1010.9
20260507192503 11 165 8.0 17.7 0.00 0.00 0.00 87 1010.9
20260507192003 11 166 8.0 17.7 0.00 0.00 0.00 87 1010.9
20260507191717 11 165 8.0 17.7 0.00 0.00 0.00 86 1010.9
20260507191003 11 168 8.0 19.3 0.00 0.00 0.00 86 1011.0
20260507190503 11 170 9.7 19.3 0.00 0.00 0.00 85 1010.9
20260507190004 12 170 9.7 20.9 0.00 0.00 0.00 85 1011.0
20260507185716 12 169 9.7 20.9 0.00 0.00 0.00 84 1011.0
20260507185003 12 167 9.7 20.9 0.00 0.00 0.00 83 1011.0
20260507184503 12 170 8.0 19.3 0.00 0.00 0.00 83 1011.0
20260507184003 12 171 8.0 19.3 0.00 0.00 0.00 82 1011.0
20260507183503 12 167 8.0 17.7 0.00 0.00 0.00 82 1010.9
20260507183003 12 168 8.0 17.7 0.00 0.00 0.00 81 1010.9
20260507182503 12 171 8.0 22.5 0.00 0.00 0.00 81 1010.9
20260507182219 12 172 9.7 22.5 0.00 0.00 0.00 81 1010.9
20260507181503 12 167 8.0 20.9 0.00 0.00 0.00 80 1010.9
20260507181003 12 167 8.0 17.7 0.00 0.00 0.00 80 1010.9
20260507180503 12 165 6.4 19.3 0.00 0.00 0.00 80 1011.1
20260507180003 12 162 6.4 19.3 0.00 0.00 0.00 79 1011.1
20260507175716 12 165 6.4 19.3 0.00 0.00 0.00 79 1011.1
20260507175217 13 171 6.4 20.9 0.00 0.00 0.00 79 1011.0
20260507174503 13 169 8.0 19.3 0.00 0.00 0.00 79 1011.0
20260507174003 13 173 6.4 19.3 0.00 0.00 0.00 79 1011.1
20260507173503 13 173 6.4 16.1 0.00 0.00 0.00 80 1011.0
20260507173217 13 174 6.4 17.7 0.00 0.00 0.00 79 1011.2
20260507172503 13 170 8.0 19.3 0.00 0.00 0.00 79 1011.1
20260507172219 13 166 8.0 19.3 0.00 0.00 0.00 79 1011.1
20260507171503 13 165 8.0 19.3 0.00 0.00 0.00 79 1011.1
20260507171003 13 169 8.0 19.3 0.00 0.00 0.00 80 1011.1
20260507170503 13 166 8.0 17.7 0.00 0.00 0.00 80 1011.1
20260507170003 13 162 8.0 19.3 0.00 0.00 0.00 80 1011.1
20260507165504 13 169 8.0 20.9 0.00 0.00 0.00 80 1011.2
20260507165003 13 167 9.7 20.9 0.00 0.00 0.00 80 1011.2
20260507164503 13 166 11.3 22.5 0.00 0.00 0.00 79 1011.2
20260507164003 13 166 9.7 24.1 0.00 0.00 0.00 79 1011.2
20260507163503 13 164 9.7 24.1 0.00 0.00 0.00 79 1011.2
20260507163003 13 166 9.7 22.5 0.00 0.00 0.00 78 1011.2
20260507162718 13 169 9.7 22.5 0.00 0.00 0.00 78 1011.2
20260507162003 13 167 9.7 20.9 0.00 0.00 0.00 78 1011.2
20260507161503 13 168 9.7 24.1 0.00 0.00 0.00 77 1011.2
20260507161003 13 170 9.7 24.1 0.00 0.00 0.00 78 1011.1
20260507160717 12 169 8.0 19.3 0.00 0.00 0.00 79 1011.2
20260507160003 12 166 9.7 24.1 0.00 0.00 0.00 78 1011.3
20260507155719 12 166 9.7 24.1 0.00 0.00 0.00 77 1011.3
20260507155003 13 167 9.7 25.7 0.00 0.00 0.00 75 1011.3
20260507154503 13 172 9.7 25.7 0.00 0.00 0.00 73 1011.3
20260507154003 13 179 8.0 22.5 0.00 0.00 0.00 72 1011.3
20260507153504 13 173 9.7 27.4 0.00 0.00 0.00 71 1011.2
20260507153003 13 167 9.7 27.4 0.00 0.00 0.00 72 1011.2
20260507152503 14 166 9.7 24.1 0.00 0.00 0.00 72 1011.2
20260507152218 14 166 9.7 24.1 0.00 0.00 0.00 72 1011.2
20260507151504 15 163 8.0 22.5 0.00 0.00 0.00 72 1011.1
20260507151216 14 164 8.0 22.5 0.00 0.00 0.00 71 1011.2
20260507150503 14 162 8.0 17.7 0.00 0.00 0.00 68 1011.2
20260507150003 15 158 8.0 17.7 0.00 0.00 0.00 67 1011.2
20260507145503 15 155 6.4 17.7 0.00 0.00 0.00 67 1011.3
20260507145003 14 159 8.0 19.3 0.00 0.00 0.00 65 1011.3
20260507144503 14 166 9.7 19.3 0.00 0.00 0.00 64 1011.4
20260507144218 13 167 9.7 19.3 0.00 0.00 0.00 65 1011.3
20260507143503 14 170 9.7 25.7 0.00 0.00 0.00 62 1011.4
20260507143003 13 169 8.0 25.7 0.00 0.00 0.00 61 1011.6
20260507142503 13 163 6.4 16.1 0.00 0.00 0.00 66 1011.6